OpenBCM V1.13 (Linux)

Packet Radio Mailbox

DB0FHN

[JN59NK Nuernberg]

 Login: GUEST





  
UA9FBV > KEPS     24.12.04 08:33l 95 Lines 2476 Bytes #999 (0) @ AMSAT
BID : ORB04358.M
Read: GUEST
Subj: Orbital Elements  04358.MISC
Path: DB0FHN<DB0MRW<DB0FOR<DB0SIF<DB0EA<DB0RES<ER3KAZ<UA9FBV
Sent: 041224/0626Z @:UA9FBV.PRM.RUS.AS #:13746 [Perm] GATEWAY $:ORB04358.M
From: UA9FBV@UA9FBV.PRM.RUS.AS
To  : KEPS@AMSAT


HR AMSAT ORBITAL ELEMENTS FOR MANNED AND MISCELLANEOUS SATELLITES
FROM WA5QGD FORT WORTH,TX December 23, 2004
SEND SUBSCRIBE/UNSUBSCRIBE TO majordomo@amsat.org ONLY
BID: ORB04358.M
TO ALL RADIO AMATEURS BT

Satellite: HUBBLE
Catalog number: 20580
Epoch time:      04357.36214735
Element set:     233
Inclination:       28.4692 deg
RA of node:       340.7535 deg
Eccentricity:    0.0003810
Arg of perigee:   190.1448 deg
Mean anomaly:     169.9044 deg
Mean motion:   14.99502593 rev/day
Decay rate:       8.77e-06 rev/day^2
Epoch rev:           60367
Checksum:              303

Satellite: UARS
Catalog number: 21701
Epoch time:      04357.69956064
Element set:     337
Inclination:       56.9788 deg
RA of node:       185.4210 deg
Eccentricity:    0.0005669
Arg of perigee:    89.0758 deg
Mean anomaly:     271.1145 deg
Mean motion:   15.03714738 rev/day
Decay rate:        5.2e-07 rev/day^2
Epoch rev:           72694
Checksum:              320

Satellite: PO-34
Catalog number: 25520
Epoch time:      04357.37189055
Element set:      76
Inclination:       28.4605 deg
RA of node:        54.1678 deg
Eccentricity:    0.0005357
Arg of perigee:   105.0588 deg
Mean anomaly:     255.0582 deg
Mean motion:   15.15986308 rev/day
Decay rate:       9.75e-06 rev/day^2
Epoch rev:           33972
Checksum:              322

Satellite: ISS
Catalog number: 25544
Epoch time:      04359.01157407
Element set:     429
Inclination:       51.6388 deg
RA of node:        76.7040 deg
Eccentricity:    0.0004277
Arg of perigee:   134.6982 deg
Mean anomaly:     220.7256 deg
Mean motion:   15.71713119 rev/day
Decay rate:     2.1364e-04 rev/day^2
Epoch rev:           34813
Checksum:              291

Satellite: OO-38
Catalog number: 26063
Epoch time:      04358.09006682
Element set:     241
Inclination:      100.2239 deg
RA of node:       179.7305 deg
Eccentricity:    0.0036768
Arg of perigee:   190.2723 deg
Mean anomaly:     169.7711 deg
Mean motion:   14.35690993 rev/day
Decay rate:        4.6e-07 rev/day^2
Epoch rev:           25702
Checksum:              307

Satellite: NO-45
Catalog number: 26932
Epoch time:      04357.69204419
Element set:    0923
Inclination:      067.0586 deg
RA of node:       321.9959 deg
Eccentricity:    0.0008068
Arg of perigee:   280.0159 deg
Mean anomaly:     080.0059 deg
Mean motion:   14.29463344 rev/day
Decay rate:       3.10e-06 rev/day^2
Epoch rev:           16857
Checksum:              319



Read previous mail | Read next mail


 15.09.2026 10:46:18lGo back Go up